Race Results for
Central Coast Circuit Races
Fort Ord, CA
(Event Information)
Road Race on 04/10/2010

Note: Ranking points are NOT upgrade points. An explanation of ranking points can be found here.


Men - Cat 5

 Place Points NameCity, StateTime USAC #BibTeam
1525.24Neema Assemi   Fresno, CA00:00.0 306675  574 Sierra Pacific Racing
2528.32NICO CERNA   Salinas, CA00:00.0 242278  572 VOS Racing
3531.41Jacob Gerhardt   Atascadero, CA00:00.0 305079  558 
4534.49Paris Loader   Salinas, CA00:00.0 245328  564 Joseyn
5537.58Will Masterman   Martinez, CA00:00.0 306981  565 
6540.66Jeff Byrd   Salinas, CA00:00.0 268757  552 VOS
7543.74Daniel Stevens   Cayucos Ca00:00.0 304754  570 
8546.83Jeff Linder   Sunnyvale, CA00:00.0 307653  563 
9549.91Jim Feliz   San Luis Obispo, CA00:00.0 272672  556 
10552.99Derek Yarra   San Francisco, CA00:00.0 306457  571 Ultra Doom
11556.08Samuel Cerruti   Watsonville, CA00:00.0 233607  575 Unattached
12559.16Mikael Cars   Campbell, CA00:00.0 275508  553 
13562.25Michael Chase   Piedmont, CA00:00.0 309589  554 
14Christopher BACHL   00:00.0  551 
15568.41Leland Jones   Fresno, CA00:00.0 107204  573 Vapor Racing
16571.50John Fernandez   San Diego, CA00:00.0 307959  557 Naval Postgraduate School
17Eddie JENSEN   00:00.0  560 
18577.66Dustin Ransom   Lakeside, CA00:00.0 301727  568 SLO Nexus- Gym One
19580.75Thomas Preisler   Los Gatos, CA00:00.0 294002  567 Los Gatos
20583.83Michael Ahern   San Jose, CA00:00.0 281780  550 Los Gatos
21586.92Matthew Kresse   Menlo Park, CA00:00.0 293462  562 SugarCRM
22590.00Jennifer Kalich   Aromas00:00.0 297754  561 
DNSEric Gneckow   Gilroy, CA00:00.0 275884  559 Team Roaring Mouse
DNSJoshua Moran   Mountain View, CA00:00.0 294130  566 Webcor/Alto Velo
DNPJonathon Reedy   Del Rey Oaks, CA00:00.0 78258  569 

Men - Cat 4

 Place Points NameCity, StateTime USAC #BibTeam
1450.59Patrick Thomas   Aptos, CA00:00.0 294849  417 
2456.93Martin Suro   Pacific Grove, CA00:00.0 165469  416 California Giant Cycling
3463.26Lei Deng   Daly City, CA00:00.0 239454  406 Third Pillar
4469.60Robert Gaukel   Santa Cruz, CA00:00.0 261233  409 Bicycle Trip
5475.94Keven Bricknell   San Francisco, CA00:00.0 253261  423 Fusion Sport USA
6482.27Vladimir Sayno   San Jose, CA00:00.0 270447  413 SJBC
7488.61John Carrino   Palo Alto, CA00:00.0 303620  404 Joselyn's Bikes/Burnham Coachi
8494.95Brian Funk   Menlo Park, CA00:00.0 289282  408 
9501.28Joshua Pizzica   Los Gatos, CA00:00.0 273910  412 Los Gatos
10507.62Stacey Sell   Prunedale, CA00:00.0 235653  414 
11513.96Justin Fahnestock   Englewood, CO00:00.0 304369  425 
12520.29Victor Mirzayan   Fresno, CA00:00.0 262853  411 Sierra Pacific Racing
13526.63Reed Cote   San Francisco, CA00:00.0 243613  421 Third Pillar
14532.97Andrew Smith   Santa Cruz, CA00:00.0 275786  415 Team Bicycle Trip/Symantec
15539.31Stephen Wassather   Santa Cruz, CA00:00.0 269058  419 Rio Strada Racing
16545.64Barrett Ausman   San Jose, CA00:00.0 186327  400 Webcor/Alto Velo
17551.98Michael Hironimus   San Mateo, CA00:00.0 277802  410 Third Pillar
18558.32Jon Moeller   Foster City, CA00:00.0 226118  424 Third Pillar
19564.65Steven Woo   Los Altos, CA00:00.0 38840  420 Third Pillar
20570.99C Jeffrey Bramlett   Palo Alto, CA00:00.0 202272  402 Third Pillar
21577.33Daniel Cervelli   Menlo Park, CA00:00.0 303551  405 
22583.66Mitch Bramlett   Santa Cruz, CA00:00.0 4611  403 Third Pillar
23590.00Taylor Tongate   Aliso Viejo, CA00:00.0 293248  418 Sho-air/Sonance
DNSBarrett Ausman   San Jose, CA00:00.0 186327  401 Webcor/Alto Velo
DNPChris Dufour   Pleasanton, CA00:00.0 302616  407 Taleo Racing
DNPsammy nicolas   San Luis Obispo, CA00:00.0 288026  422 SLO Nexus-Gym One

Men - Cat 1/2/3

 Place Points NameCity, StateTime USAC #BibTeam
1274.28Osvaldo Olmos   San Luis Obispo, CA00:00.0 172541  90 California Giant Berry Farms/S
2291.61Craig Nunes   San Luis Obispo, CA00:00.0 178453  87 ArtsCyclery.com/Wild Horse Win
3308.93Dillon Clapp   Stevenson Ranch, CA00:00.0 6973  88 ArtsCyclery.com/Wild Horse Win
4326.26Stephen Leece   San Luis Obispo, CA00:00.0 282569  85 NOW-MS Society
5343.58Julian Martinez   Santa Monica, CA00:00.0 214569  89 California Giant Berry Farms/S
6360.90David Wyandt (1 - Cat1)   Cupertino, CA00:00.0 39090  86 Unattached
7378.23Matthew Carinio   San Luis Obispo, CA00:00.0 6109  99 ArtsCyclery.com/Wild Horse Win
8395.55Miles LaMon   San Luis Obispo, CA00:00.0 187271  96 ArtsCyclery.com/Wild Horse Win
9412.88Raffi Jilizian   Danville, CA00:00.0 187667  97 FORM Fitness
10430.20Blake Reed   Grover Beach, CA00:00.0 29369  95 ArtsCylcery.com/Wild Horse Win
11447.53Jonathan Sek   San Jose, CA00:00.0 45922  92 San Jose Bicycle Club
DNSDana Williams   Mill Valley, CA00:00.0 295988  93 Fusion Sport USA
DNSRobert Scheffler   Alamo, CA00:00.0 239048  94 
DNPGraham Simpson   Carmel Valley, CA00:00.0 65800  84 Webcor/Alto Velo
DNPKristina Seley   San Luis Obispo, CA00:00.0 223809  91 Touchstone Climbing
DNPGeoffrey Davis   San Luis Obispo, CA00:00.0 205688  98 ArtsCyclery.com/Wild Horse Win

Men - Cat 1/2/3 - Master - 35-99

 Place Points NameCity, StateTime USAC #BibTeam
1283.89Craig Nunes   San Luis Obispo, CA00:00.0 178453  750 ArtsCyclery.com/Wild Horse Win
2293.44Nick Theobald   Burlingame, CA00:00.0 35297  740 SAFEWAY/Bicycles Plus/PureRed
3302.99Douglas Philippone   Washington, DC00:00.0 42635  736 Joselyn's Bicycles/Palantir
4312.54Lance Cameron   Pacific Grove, CA00:00.0 5900  755 Kingsnorth International Wheel
5322.09Matthew Carinio   San Luis Obispo, CA00:00.0 6109  725 ArtsCyclery.com/Wild Horse Win
6331.64Dan Martin   Pleasanton, CA00:00.0 179386  754 SAFEWAY/Bicycles Plus/PureRed
7341.19Nathan Erickson   San Luis Obispo, CA00:00.0 63004  727 ArtsCyclery.com/Wild Horse Win
8350.74Dean Knudsen   Pacific Grove, CA00:00.0 74410  751 Christian Cycling-Hammer Nutri
9360.30Chris Ott   San Jose, CA00:00.0 26920  735 Zenn Racing Team
10369.85Kyle Glerum   Burlingame, CA00:00.0 195470  749 SAFEWAY/Bicycles Plus/PureRed
11379.40Keith DeFiebre   Prunedale, CA00:00.0 9046  726 California Giant Cycling
12388.95Dominic Giampaolo   Lewiston, ME00:00.0 196229  728 Webcor/Alto Velo
13398.50Daryl Spano   Fremont, CA00:00.0 146243  739 SJBC
14408.05David Avila   Emerald Hills, CA00:00.0 55625  745 One Team Racing
15417.60Aaron Hunter   Santa Cruz, CA00:00.0 215194  730 Kinetic Cycles/GBI
16427.15Ken Calender   Salinas, CA00:00.0 115342  746 Unattached
17436.70Blake Reed   Grover Beach, CA00:00.0 29369  738 ArtsCylcery.com/Wild Horse Win
18446.25Jim Ivey   Salinas, CA00:00.0 240703  747 Unattached
19455.81Raffi Jilizian   Danville, CA00:00.0 187667  731 FORM Fitness
20465.36Anthony Snell (1 - Cat3)   Seaside, CA00:00.0 47212  748 Unattached
21474.91Leslie Oglesby   Salinas, CA00:00.0 53661  734 Joselyn's Bicycles
22484.46Jim Bonnet   Hollister, CA00:00.0 4206  742 SJBC
23494.01Michael Ma   San Jose, CA00:00.0 41600  733 Stuzio Cycling Club
24503.56Bo Hebenstreit   Campbell, CA00:00.0 196276  752 Webcor/Alto Velo
25513.11Doug Hall   San Jose, CA00:00.0 229718  729 Williams Cycling
26522.66James Herzman   Truckee, CA00:00.0 207922  753 Kinetic Cycles/GBI
27532.21David Morton   Los Gatos, CA00:00.0 243225  743 SJBC
DNSRalph King   San Mateo, CA00:00.0 52299  732 Third Pillar
DNPMatthew Ream   Verdi, NV00:00.0 211441  737 Kinetic Cycles / GBI
DNPChristopher Kautz   Danbury, CT00:00.0 18633  741 Unattached
DNPJeff Poulsen   Arnold, CA00:00.0 28533  744 SAFEWAY/Bicycles Plus/PureRed

Men - Cat 1/2/3/4 - Master - 45-99

 Place Points NameCity, StateTime USAC #BibTeam
1297.69Cale Reeder   Cameron Park, CA00:00.0 272237  705 Echelon Gran Fondo/Zteam
2306.64Brad House   Dallas, TX00:00.0 16837  703 BikePalace/BackOnTrack
3315.59Dennis Pedersen   Santa Cruz, CA00:00.0 126404  704 Team Bicycle Trip/Symantec
4324.54Geoffrey Drake   Aptos, CA00:00.0 9986  720 Team Bicycle Trip/Symantec
5333.49William Dunham   San Jose, CA00:00.0 206162  716 Webcor/Alto Velo
6342.44Courtney Grossman   Salinas, CA00:00.0 86795  718 VOS Racing
7351.39Andrew Nevitt   Saratoga, CA00:00.0 47463  725 SJBC
8360.34Shin Umeda   Sunnyvale, CA00:00.0 46023  713 Webcor/Alto Velo
9369.29Gregory Pike   Salinas, CA00:00.0 158350  721 VOS Racing
10378.24Jim Ivey   Salinas, CA00:00.0 240703  709 Unattached
11387.19Jan Huptych   San Mateo, CA00:00.0 86954  711 ThirstyBear Cycling
12396.14Mark Edwards   Santa Cruz, CA00:00.0 236580  702 Team Bicycle Trip
13405.09Paul DeBacker   Mountain View, CA00:00.0 168436  714 Webcor/Alto Velo
14414.04Randy Armstrong   Morgan Hill, CA00:00.0 47828  700 SJBC
15422.99Jonathan Sek   San Jose, CA00:00.0 45922  706 SJBC
16431.94Dean Knudsen   Pacific Grove, CA00:00.0 74410  710 Christian Cycling-Hammer Nutri
17440.89Patrick Hampton   Cambria, CA00:00.0 218958  722 ArtsCyclery.com/Wild Horse Win
18449.84Clark Foy   Los Gatos, CA00:00.0 255066  724 SJBC
19458.79Jeff Poulsen   Arnold, CA00:00.0 28533  712 SAFEWAY/Bicycles Plus/PureRed
20467.74Michael Vella   Saratoga, CA00:00.0 167402  715 Webcor/Alto Velo
21476.69Steven Gile   Salinas, CA00:00.0 98978  723 VOS Racing
22485.64Leslie Oglesby   Salinas, CA00:00.0 53661  708 Unattached
23494.59Scott Calley   Monterey, CA00:00.0 195999  717 VOS Racing
24503.54Martin Wolff   Carmel, CA00:00.0 203646  719 VOS Racing
DNSHunter Ziesing   Bel Tiburon, CA00:00.0 39478  707 Echelon Gran Fondo/ZteaM
DNPAllan Armstrong   Los Altos, CA00:00.0 51079  701 Webcor/Alto Velo

Men - Cat 1/2/3/4 - Master - 55-99

 Place Points NameCity, StateTime USAC #BibTeam
1358.06George Smith   Menlo Park, CA00:00.0 168005  888 Webcor/Alto Velo
2380.83Mark Caldwell   Moraga, CA00:00.0 40039  889 Morgan Stanley Cycling Team
3403.61Larry Hampson   Marina, CA00:00.0 49323  895 VOS Racing
4426.38Robert Parker   San Jose, CA00:00.0 48416  898 Webcor/Alto Velo
5449.15Scott Hennessy   Salinas, CA00:00.0 15827  887 VOS Racing
6471.92Chris Cerruti   Watsonville, CA00:00.0 198811  894 Cal Gaint Cycling
7494.69Bob Guglielmelli   San Luis Obispo, CA00:00.0 14374  892 Central Coast Tire CCT
8517.47Gordon Martine   Pacific Grove, CA00:00.0 218819  890 VOS Racing
9540.24Franz Broz   Pebble Beach, CA00:00.0 155801  891 VOS Racing
10563.01Edward Price   Aptos, CA00:00.0 84614  899 Team Bicycle Trip
DNSBrendan Leary (Cat4)   Los Altos, CA00:00.0 64842  897 650 racing
DNPLarry Upthegrove (Cat4)   Antioch, CA00:00.0 195417  893 Christian Cycling-Hammer Nutri
DNPLarry Knaus   Santa Clara, CA00:00.0 48681  896 Webcor/Alto Velo

Men - Cat 3/4

 Place Points NameCity, StateTime USAC #BibTeam
1359.11Robbie Franscioni   Salinas, CA00:00.0 298805  930 California Giant Cycling
2369.89Nils Tikkanen   Santa Cruz, CA00:00.0 198331  917 Team Bicycle Trip/Symantec
3380.68Jeffrey Lin   Cupertino, CA00:00.0 286962  911 SJBC
4391.47Jan Huptych   San Mateo, CA00:00.0 86954  928 ThirstyBear Cycling
5402.26Keven Bricknell   San Francisco, CA00:00.0 253261  920 Fusion Sport USA
6413.04Michael Grundmann   Sunnyvale, CA00:00.0 182738  925 Webcor/Alto Velo
7423.83Michael Holt   Morgan Hill, CA00:00.0 75334  909 TBS Racing
8434.62Geoffrey Davis   San Luis Obispo, CA00:00.0 205688  906 ArtsCyclery.com/Wild Horse Win
9445.41Abe Rotstein   Watsonville, CA00:00.0 286497  915 Team Bicycle Trip / Symantec
10456.19Scott Cole   Oakland, CA00:00.0 199614  905 Third Pillar
11466.98Peter Montoya (1 - Cat3)   Fresno, CA00:00.0 222038  912 
12477.77David Porter   San Jose, CA00:00.0 126711  926 TBS Racing Team
13488.56Lei Deng   Daly City, CA00:00.0 239454  907 Third Pillar
14499.34Earle Baker (2 - Cat3)   San Jose, CA00:00.0 204436  903 TBS Racing
15510.13David Rossow   Los Gatos, CA00:00.0 232665  929 Webcor/Alto Velo
16520.92James Porter   Palo Alto, CA00:00.0 238708  931 Webcor/Alto Velo
17531.71Kevin Rennie   Menlo Park, CA00:00.0 124208  914 Specialized
18542.49Jim Bonnet   Hollister, CA00:00.0 4206  921 SJBC
19553.28Barrett Ausman   San Jose, CA00:00.0 186327  901 Webcor/Alto Velo
20564.07Jonathan Sinclair   Hollister, CA00:00.0 113194  916 SJBC
21574.86David Morton   Los Gatos, CA00:00.0 243225  922 SJBC
22585.64Jonathan Racine   San Jose, CA00:00.0 200129  913 SJBC
DNSPhil Alne   San Jose, CA00:00.0 236191  900 SJBC
DNSBarrett Ausman   San Jose, CA00:00.0 186327  902 Webcor/Alto Velo
DNSRalph King   San Mateo, CA00:00.0 52299  910 Third Pillar
DNPMatt Bokemeier (Cat3)   San Jose, CA00:00.0 254319  904 SJBC
DNPMichael Hironimus   San Mateo, CA00:00.0 277802  908 Third Pillar
DNPStephen Wassather (Cat4)   Santa Cruz, CA00:00.0 269058  918 Rio Strada Racing
DNPReed Cote   San Francisco, CA00:00.0 243613  919 Third Pillar
DNPRobert Gaukel   Santa Cruz, CA00:00.0 261233  923 Team Bicycle Trip/Symantec
DNPRick Morgan   Los Altos, CA00:00.0 267310  924 SJBC
DNPLance Cameron   Pacific Grove, CA00:00.0 5900  927 Kingsnorth International Wheel
DNPPatrick Thomas   Aptos, CA00:00.0 294849  932 Unattached

Men - Cat 4/5 - Master - 35-99

 Place Points NameCity, StateTime USAC #BibTeam
1480.08Rick Morgan   Los Altos, CA00:00.0 267310  373 SJBC
2483.31Vladimir Sayno   San Jose, CA00:00.0 270447  385 SJBC
3486.55Paris Loader (1 - Cat4)   Salinas, CA00:00.0 245328  366 Joseyn
4489.78Joshua Pizzica   Los Gatos, CA00:00.0 273910  379 Third Pillar
5493.01Frank Pinto   Monterey, CA00:00.0 227583  378 Joselyns
6496.24Todd Munk   Morgan Hill, CA00:00.0 296426  374 SJBC
7499.48Ricky Lucero   Scotts Valley, CA00:00.0 240295  368 SJBC
8502.71SAMMY TRUJILLO   Rancho Cordova, CA00:00.0 286935  390 
9505.94Holger Steinbach   Los Gatos, CA00:00.0 304900  396 Webcor/Alto Velo
10509.18Leland Jones   Fresno, CA00:00.0 107204  393 Vapor Racing
11512.41Dan Perry   Capitola, CA00:00.0 306011  377 
12515.64Victor Mirzayan   Fresno, CA00:00.0 262853  372 Sierra Pacific Racing
13518.88Michael Holk   Pacific Palisades, CA00:00.0 16524  364 T&T
14522.11emmanuel billaud   San Mateo, CA00:00.0 289763  353 Taleo Racing
15525.34Hussein Saffouri   Piedmont, CA00:00.0 41848  384 Berkeley Bike Club (BBC)
16528.57Sean Tompkins   Morganhill, CA00:00.0 300546  389 SJBC
17531.81Ron Abidog   Sanjose, CA00:00.0 285617  350 SJBC
18535.04Oddvar Kaarboe   Menlo Park, CA00:00.0 304762  395 Webcor/Alto Velo
19538.27Stacey Sell   Prunedale, CA00:00.0 235653  386 
20541.51scott hayes   Lahonda, CA00:00.0 303558  362 SJBC
21544.74Nick DellaMaggiore   Morganhill, CA00:00.0 288006  371 TBS Racing
22547.97Ryan Gibson   Mountain View, CA00:00.0 295319  360 Alto Velo
23551.20Amit Paz   Danville, CA00:00.0 203861  376 Taleo Racing
24554.44C Jeffrey Bramlett   Palo Alto, CA00:00.0 202272  354 Third Pillar
25557.67george janour   Bonny Doon, CA00:00.0 290017  365 Bike Trip
26560.90Michael Hironimus   San Mateo, CA00:00.0 277802  363 Third Pillar
27564.14Steven Woo   Los Altos, CA00:00.0 38840  392 Third Pillar
28Cam PRIMAVERA   00:00.0  380 
29570.60Mitch Bramlett   Santa Cruz, CA00:00.0 4611  355 Third Pillar
30573.84Jon Moeller   Foster City, CA00:00.0 226118  394 Third Pillar
31577.07Paul Robins (2 - Cat4)   Watsonville, CA00:00.0 243094  382 One Team Racing
32580.30David Setton   Danville, CA00:00.0 303681  387 Berkeley Bike Club (BBC)
33583.53William Habenick   Kapolei, HI00:00.0 307132  361 Brentwood Bike Co.
34586.77Neil MacDonald   Ben Lomond, CA00:00.0 275362  369 SJBC
35590.00Jonathan Racine   San Jose, CA00:00.0 200129  381 SJBC
DNSPhil Alne   San Jose, CA00:00.0 236191  351 SJBC
DNSBarry Burr (Cat4)   Mountain View, CA00:00.0 275056  356 Webcor/Alto Velo
DNSMichael Charney   Millbrae, CA00:00.0 250113  357 Third Pillar
DNSAndrew Evans   Mountain View, CA00:00.0 304432  359 Webcor/Alto Velo
DNSErik Needham   Sanfrancisco, CA00:00.0 303400  375 Team Roaring Mouse
DNSDan Romo   Campbell, CA00:00.0 306608  383 SJBC
DNSNathan Williams (Cat4)   Sanjose, CA00:00.0 307180  391 SJBC
DNSChristopher BACHL   00:00.0  352 
DNPKris COWDREY   00:00.0  358 
DNPJames Lopez   Pacific Grove, CA00:00.0 21581  367 
DNPRYAN MEINEKE   Danville, CA00:00.0 303700  370 Taleo Racing
DNPJames Thompson   Sanjose, CA00:00.0 303482  388 SJBC

Men - Cat 4/5 - Master - 45-99

 Place Points NameCity, StateTime USAC #BibTeam
1490.70Scott Riddle   San Jose, CA00:00.0 270475  528 SJBC
2493.11Greg Rodrigues   San Francisco, CA00:00.0 297955  531 
3495.52Carl Canaparo   San Ramon, CA00:00.0 212014  507 
4497.93Jeffrey Patterson   Half Moon Bay, CA00:00.0 305076  526 Peninsula Velo/Pomodoro
5500.34Joe Fabris   Los Gatos, CA00:00.0 189959  510 Fightin' Bobas - Trail Head
6502.75Shawn Oliver   Morgan Hill, CA00:00.0 249822  525 SJBC
7505.17David Metzinger   Livermore, CA00:00.0 230083  541 Minimax
8507.58Scott Calley   Monterey, CA00:00.0 195999  506 VOS Racing
9509.99Michael Rizzo   Morgan Hill, CA00:00.0 59049  530 SJBC
10512.40Shane Huntoon   Livermore, CA00:00.0 17200  518 Christian Cycling-Hammer Nutri
11514.81Todd Fernandez   Los Gatos, CA00:00.0 304275  511 
12517.22Joe Platin   Santa Cruz, CA00:00.0 256834  527 Team Bicycle Trip / Symantec
13519.63Vladan Strbac   Scotts Valley, CA00:00.0 259261  538 Team Bicycle Trip/Symantec
14522.04Carmelo Rios   San Jose, CA00:00.0 261379  529 Fighin' Bobas
15524.45Calvin Darling   Mountain View, CA00:00.0 272309  508 Monta Vista Velo
16526.86Jeffrey Botelho   Sanramon, CA00:00.0 303912  505 Taleo Racing
17529.28Allan Armstrong   Los Altos, CA00:00.0 51079  503 Webcor/Alto Velo
18531.69Dan Scrivner   Los Altos, CA00:00.0 78689  532 650 Racing
19534.10Ron Nelson   Martinez, CA00:00.0 257207  524 NA
20536.51Craig Larsen   Santa Clara, CA00:00.0 65413  521 Monta Vista Velo
21538.92Mark Johnson (1 - Cat4)   Los Gatos, CA00:00.0 195404  519 SJBC
22541.33Douglas Bauer   San Francisco, CA00:00.0 197821  504 GS Lombardi Sports
23543.74Patrick Hampton   Cambria, CA00:00.0 218958  515 ArtsCyclery.com / Wild Horse W
24546.15Steve Anderson   Monterey, CA00:00.0 236231  502 
25548.56Anthony Justman   San Francisco, CA00:00.0 60882  539 Fusion Sport USA
26550.97James Allen   Danville, CA00:00.0 287305  501 Webcor/Alto Velo
27553.38Larry Upthegrove (2 - Cat4)   Antioch, CA00:00.0 195417  542 Christian Cycling-Hammer Nutri
28Darren YAP   00:00.0  537 
29558.21Nick Goss (1 - Cat5)   Carmel Valley, CA00:00.0 308244  514 
30560.62Alan Weatherall   San Jose, CA00:00.0 233934  536 SJBC
31563.03Len Tabor   Hollister, CA00:00.0 125781  533 Don Chapin/monterey bay racing
32565.44frederic taylor   Pacificgrove, CA00:00.0 310416  534 nps
33567.85Derrick Hemingway   San Jose, CA00:00.0 259077  516 SJBC
34570.26Scott Lewis (3 - Cat4)   San Jose, CA00:00.0 166779  523 TBS Racing
35UNKNOWN RIDER   00:00.0  588 -------
DNSSaeed Abedi   Mountain View, CA00:00.0 172270  500 Webcor/Alto Velo
DNSMark Flynn   San Jose, CA00:00.0 287744  512 SJBC
DNSBrendan Leary (Cat4)   Los Altos, CA00:00.0 64842  522 650 racing
DNPGreg Elliott (Cat4)   Fremont, CA00:00.0 271538  509 Minimax
DNPVictor Furr   Pleasanton, CA00:00.0 96225  513 Minimax
DNPBill Honeycutt   Discovery Bay, CA00:00.0 304906  517 Brentwood Bike Club
DNPToby Katz   Salinas, CA00:00.0 290732  520 Velo Club Monterey Racing
DNPTimothy Turnbull   Castroville, CA00:00.0 309759  535 los gatos bicycle racing club
DNPGilbert Tarin   Knightsen, CA00:00.0 252241  540 Taleo Racing

Women - Cat 4

 Place Points NameCity, StateTime USAC #BibTeam
1540.00Joanne Thompson   Aptos, CA00:00.0 47791  606 Bike Station Aptos
2547.55Courtney Shipman   Aptos, CA00:00.0 302140  605 Bike Station Aptos
3555.11Ashley Drum   Mill Valley , CA00:00.0 307080  608 Unattached
4562.66Jamii North   Portola Valley, CA00:00.0 219869  603 Ohana Sport
5570.21Donna Nice   San Jose, CA00:00.0 310519  602 
6577.77Heather Ross   Felton, CA00:00.0 239612  607 Los Gatos Bicycle Racing Club
7585.32Sophie Barbier   Palo Alto, CA00:00.0 304031  604 Unattached
DNSKeila Classen   Palo Alto, CA00:00.0 239635  600 Ohana Sport
DNSLisa Hern   Los Gatos, CA00:00.0 258499  601 Unattached

Women - Cat 1/2/3

 Place Points NameCity, StateTime USAC #BibTeam
1414.30Kristina Seley   San Luis Obispo, CA00:00.0 223809  263 Touchstone Climbing
2495.25Sue Lovecchio   Pacific Grove, CA00:00.0 205235  265 Velo Bella
3576.20Kimberley Payne (1 - Cat3)   Campbell, CA00:00.0 51589  264 OHANA Sport/Ducati

Women - Masters - Master - 35-99

 Place Points NameCity, StateTime USAC #BibTeam
1540.00Julie Nevitt   Saratoga, CA00:00.0 136522  496 SJBC
2556.67Jennifer Kalich   Aromas00:00.0 297754  499 
3573.33Soni Andreini Poulsen   Arnold, CA00:00.0 235758  498 Velo Bella
4590.00Marja Nousiainen   Menlo Park, CA00:00.0 203255  497 Team Roaring Mouse

Report missing or incorrect license numbers

Volkswagen
ShimanoBonk BreakerUSACDFSpySierra Nevada
UCI USA Cycling is the official governing body for all disciplines of competitive cycling in the United States. The 501c3, membership-based organization aims both to achieve sustained success in international cycling competition and to grow competitive cycling in America while delivering an exceptional customer experience.
View Children's Online Privacy Protection Policy
US Olympic Committee